Orbital Elements at Epoch 2459000.5 (2020-May-31.0) TDB
Reference: JPL 44 (heliocentric ecliptic J2000)
Element | Value | Uncertainty (1-sigma) | Units |
e | .1337203841232695 | 3.1478e-08 | |
a | 3.147236519475538 | 1.3637e-08 | au |
q | 2.726386843164487 | 1.0442e-07 | au |
i | 12.26831815142302 | 3.7462e-06 | deg |
node | 99.51337855700901 | 1.5483e-05 | deg |
peri | 249.2473902213088 | 2.1826e-05 | deg |
M | 272.7656571825449 | 1.728e-05 | deg |
tp | 2459494.671269847172 (2021-Oct-07.17126985) | 9.9364e-05 | TDB |
period | 2039.353440390504 5.58 | 1.3255e-05 3.629e-08 | d yr |
n | .1765265367297322 | 1.1473e-09 | deg/d |
Q | 3.568086195786588 | 1.5461e-08 | au |
|
| | Orbit Determination Parameters
Additional Information
|